When you browse on this site, cookies collect data to enhance your experience and personalize the content and advertising you see.
Visit our Privacy Policy to learn more. By continuing to use the site, you agree to this use of cookies and data.
  • En España
  • Lista de países
  • Para 7 días
  • Temperatura del agua
  • El tiempo en el mapa
  • Informadores
  • user-avatar
    Iniciar sesión

    Tiempo cada hora Karlovi Vari

    Hoy, 7 Junio, Domingo

    Tiempo Temperatura Precipitaciones Viento Presión Humedad
    00:00 +8°C° 0.1 mm 2 mps 691 mmHg 91%
    01:00 +8°C° 0.1 mm 2 mps 691 mmHg 91%
    02:00 +8°C° 0.1 mm 2 mps 691 mmHg 93%
    03:00 +9°C° 0.1 mm 2 mps 691 mmHg 95%
    04:00 +9°C° 0.1 mm 2 mps 691 mmHg 98%
    05:00 +9°C° 0.4 mm 2 mps 691 mmHg 97%
    06:00 +9°C° 0.4 mm 2 mps 691 mmHg 97%
    07:00 +9°C° 0.4 mm 2 mps 692 mmHg 96%
    08:00 +9°C° 0.7 mm 2 mps 692 mmHg 95%
    09:00 +9°C° 0.7 mm 2 mps 692 mmHg 94%
    10:00 +10°C° 0.7 mm 1 mps 693 mmHg 92%
    11:00 +10°C° 0.2 mm 1 mps 693 mmHg 89%
    12:00 +10°C° 0.2 mm 2 mps 693 mmHg 86%
    13:00 +12°C° 0.2 mm 2 mps 693 mmHg 83%
    14:00 +10°C° 0.3 mm 2 mps 693 mmHg 83%
    15:00 +10°C° 0.3 mm 2 mps 693 mmHg 84%
    16:00 +11°C° 0.3 mm 1 mps 694 mmHg 85%
    17:00 +11°C° 0.7 mm 1 mps 694 mmHg 88%
    18:00 +10°C° 0.7 mm 1 mps 694 mmHg 92%
    19:00 +10°C° 0.7 mm 1 mps 694 mmHg 95%
    20:00 +9°C° 0.1 mm 1 mps 695 mmHg 96%
    21:00 +9°C° 0.1 mm 1 mps 695 mmHg 96%
    22:00 +8°C° 0.1 mm 1 mps 695 mmHg 97%
    23:00 +7°C° 0 mm 1 mps 695 mmHg 97%

    Mañana, 8 Junio, Lunes

    Tiempo Temperatura Precipitaciones Viento Presión Humedad
    00:00 +7°C° 0 mm 1 mps 695 mmHg 97%
    01:00 +6°C° 0 mm 1 mps 695 mmHg 97%
    02:00 +5°C° 0 mm 0 mps 694 mmHg 97%
    03:00 +4°C° 0 mm 0 mps 694 mmHg 96%
    04:00 +4°C° 0 mm 0 mps 694 mmHg 96%
    05:00 +6°C° 0 mm 0 mps 695 mmHg 93%
    06:00 +7°C° 0 mm 0 mps 695 mmHg 89%
    07:00 +9°C° 0 mm 0 mps 696 mmHg 86%
    08:00 +11°C° 0 mm 0 mps 696 mmHg 75%
    09:00 +15°C° 0 mm 1 mps 697 mmHg 63%
    10:00 +18°C° 0 mm 1 mps 697 mmHg 52%
    11:00 +18°C° 0 mm 1 mps 697 mmHg 51%
    12:00 +18°C° 0 mm 1 mps 697 mmHg 50%
    13:00 +17°C° 0 mm 2 mps 696 mmHg 49%
    14:00 +17°C° 0 mm 2 mps 696 mmHg 50%
    15:00 +17°C° 0 mm 2 mps 696 mmHg 51%
    16:00 +17°C° 0 mm 2 mps 696 mmHg 51%
    17:00 +16°C° 0.1 mm 2 mps 696 mmHg 60%
    18:00 +15°C° 0.1 mm 2 mps 696 mmHg 69%
    19:00 +14°C° 0.1 mm 2 mps 696 mmHg 78%
    20:00 +13°C° 0.1 mm 2 mps 696 mmHg 83%
    21:00 +12°C° 0.1 mm 2 mps 696 mmHg 87%
    22:00 +10°C° 0.1 mm 2 mps 696 mmHg 91%
    23:00 +10°C° 0 mm 1 mps 696 mmHg 92%

    Pasado mañana, 9 Junio, Martes

    Tiempo Temperatura Precipitaciones Viento Presión Humedad
    00:00 +10°C° 0 mm 1 mps 696 mmHg 92%
    01:00 +9°C° 0 mm 1 mps 697 mmHg 93%
    02:00 +9°C° 0 mm 1 mps 696 mmHg 94%
    03:00 +9°C° 0 mm 1 mps 696 mmHg 94%
    04:00 +8°C° 0 mm 1 mps 696 mmHg 94%
    05:00 +10°C° 0 mm 1 mps 697 mmHg 91%
    06:00 +11°C° 0 mm 1 mps 697 mmHg 88%
    07:00 +12°C° 0 mm 1 mps 697 mmHg 85%
    08:00 +13°C° 0 mm 2 mps 698 mmHg 76%
    09:00 +15°C° 0 mm 2 mps 698 mmHg 68%
    10:00 +16°C° 0 mm 3 mps 698 mmHg 60%
    11:00 +17°C° 0.1 mm 3 mps 698 mmHg 58%
    12:00 +17°C° 0.1 mm 3 mps 698 mmHg 57%
    13:00 +18°C° 0.1 mm 4 mps 698 mmHg 55%
    14:00 +17°C° 0.2 mm 3 mps 698 mmHg 58%
    15:00 +17°C° 0.2 mm 3 mps 698 mmHg 61%
    16:00 +17°C° 0.2 mm 3 mps 698 mmHg 64%
    17:00 +16°C° 0.2 mm 3 mps 698 mmHg 72%
    18:00 +15°C° 0.2 mm 2 mps 697 mmHg 79%
    19:00 +13°C° 0.2 mm 2 mps 697 mmHg 86%
    20:00 +13°C° 0.1 mm 2 mps 697 mmHg 88%
    21:00 +12°C° 0.1 mm 2 mps 698 mmHg 90%
    22:00 +12°C° 0.1 mm 2 mps 698 mmHg 92%
    23:00 +10°C° 0 mm 2 mps 698 mmHg 92%

    10 Junio, Miércoles

    Tiempo Temperatura Precipitaciones Viento Presión Humedad
    00:00 +11°C° 0 mm 1 mps 697 mmHg 92%
    01:00 +11°C° 0 mm 1 mps 697 mmHg 92%
    02:00 +10°C° 0 mm 1 mps 697 mmHg 93%
    03:00 +9°C° 0 mm 1 mps 697 mmHg 93%
    04:00 +9°C° 0 mm 1 mps 697 mmHg 93%
    05:00 +9°C° 0 mm 2 mps 697 mmHg 91%
    06:00 +10°C° 0 mm 2 mps 697 mmHg 88%
    07:00 +12°C° 0 mm 2 mps 697 mmHg 85%
    08:00 +12°C° 0.1 mm 2 mps 697 mmHg 85%
    09:00 +12°C° 0.1 mm 2 mps 697 mmHg 85%
    10:00 +13°C° 0.1 mm 2 mps 698 mmHg 84%
    11:00 +13°C° 0.2 mm 2 mps 697 mmHg 87%
    12:00 +12°C° 0.2 mm 2 mps 697 mmHg 89%
    13:00 +12°C° 0.2 mm 2 mps 697 mmHg 92%
    14:00 +11°C° 0 mm 3 mps 697 mmHg 90%
    15:00 +11°C° 0 mm 3 mps 696 mmHg 89%
    16:00 +12°C° 0 mm 3 mps 696 mmHg 88%
    17:00 +12°C° 0 mm 2 mps 696 mmHg 87%
    18:00 +12°C° 0 mm 2 mps 696 mmHg 85%
    19:00 +12°C° 0 mm 2 mps 696 mmHg 84%
    20:00 +12°C° 0.2 mm 2 mps 696 mmHg 85%
    21:00 +11°C° 0.2 mm 1 mps 696 mmHg 86%
    22:00 +10°C° 0.2 mm 1 mps 696 mmHg 87%
    23:00 +10°C° 0.5 mm 1 mps 695 mmHg 90%

    11 Junio, Jueves

    Tiempo Temperatura Precipitaciones Viento Presión Humedad
    00:00 +10°C° 0.5 mm 1 mps 695 mmHg 93%
    01:00 +9°C° 0.5 mm 1 mps 695 mmHg 96%
    02:00 +9°C° 0.6 mm 1 mps 695 mmHg 96%
    03:00 +9°C° 0.6 mm 1 mps 694 mmHg 97%
    04:00 +9°C° 0.6 mm 1 mps 694 mmHg 98%
    05:00 +9°C° 0.4 mm 1 mps 694 mmHg 98%
    06:00 +10°C° 0.4 mm 1 mps 694 mmHg 98%
    07:00 +10°C° 0.4 mm 1 mps 694 mmHg 97%
    08:00 +9°C° 0.2 mm 2 mps 694 mmHg 96%
    09:00 +9°C° 0.2 mm 2 mps 694 mmHg 95%
    10:00 +9°C° 0.2 mm 2 mps 694 mmHg 93%
    11:00 +12°C° 0 mm 2 mps 694 mmHg 89%
    12:00 +13°C° 0 mm 1 mps 694 mmHg 85%
    13:00 +14°C° 0 mm 1 mps 694 mmHg 81%
    14:00 +15°C° 0 mm 1 mps 694 mmHg 77%
    15:00 +16°C° 0 mm 1 mps 694 mmHg 73%
    16:00 +18°C° 0 mm 1 mps 693 mmHg 69%
    17:00 +18°C° 0 mm 1 mps 693 mmHg 73%
    18:00 +16°C° 0 mm 1 mps 693 mmHg 77%
    19:00 +15°C° 0 mm 1 mps 693 mmHg 81%
    20:00 +14°C° 0 mm 1 mps 692 mmHg 87%
    21:00 +12°C° 0 mm 1 mps 692 mmHg 92%
    22:00 +11°C° 0 mm 1 mps 692 mmHg 97%
    23:00 +10°C° 0 mm 1 mps 692 mmHg 97%

    12 Junio, Viernes

    Tiempo Temperatura Precipitaciones Viento Presión Humedad
    00:00 +10°C° 0 mm 1 mps 691 mmHg 97%
    01:00 +9°C° 0 mm 1 mps 691 mmHg 97%
    02:00 +9°C° 0 mm 1 mps 691 mmHg 97%
    03:00 +9°C° 0 mm 1 mps 691 mmHg 97%
    04:00 +9°C° 0 mm 1 mps 690 mmHg 97%
    05:00 +11°C° 0 mm 1 mps 691 mmHg 93%
    06:00 +12°C° 0 mm 1 mps 691 mmHg 89%
    07:00 +14°C° 0 mm 1 mps 692 mmHg 85%
    08:00 +14°C° 0.4 mm 2 mps 692 mmHg 86%
    09:00 +13°C° 0.4 mm 4 mps 692 mmHg 87%
    10:00 +13°C° 0.4 mm 5 mps 693 mmHg 89%
    11:00 +13°C° 0.1 mm 5 mps 693 mmHg 84%
    12:00 +12°C° 0.1 mm 4 mps 693 mmHg 79%
    13:00 +12°C° 0.1 mm 4 mps 693 mmHg 75%
    14:00 +13°C° 0 mm 4 mps 693 mmHg 71%
    15:00 +13°C° 0 mm 3 mps 693 mmHg 67%
    16:00 +13°C° 0 mm 3 mps 693 mmHg 62%
    17:00 +14°C° 0 mm 2 mps 693 mmHg 66%
    18:00 +14°C° 0 mm 2 mps 693 mmHg 70%
    19:00 +13°C° 0 mm 1 mps 694 mmHg 74%
    20:00 +12°C° 0 mm 1 mps 694 mmHg 79%
    21:00 +10°C° 0 mm 2 mps 694 mmHg 85%
    22:00 +9°C° 0 mm 2 mps 694 mmHg 90%
    23:00 +8°C° 0 mm 2 mps 694 mmHg 93%
    Mostrar más